• In Netherlands
  • List of Countries
  • For 7 days
  • Water Temperature
  • Satellite Maps
  • Weather Map
  • Weather Widgets
  • user-avatar
    Login

    Hourly Weather Malanje

    Today, 29 April, Saturday

    Time Temperature Precipitation Wind Pressure Humidity
    00:00 +20°C° 0.1 mm 1 mps 666 mmHg 91%
    01:00 +20°C° 0 mm 1 mps 666 mmHg 92%
    02:00 +20°C° 0.3 mm 1 mps 666 mmHg 92%
    03:00 +20°C° 0.3 mm 1 mps 666 mmHg 93%
    04:00 +19°C° 0.3 mm 1 mps 666 mmHg 93%
    05:00 +19°C° 0 mm 2 mps 666 mmHg 93%
    06:00 +19°C° 0 mm 2 mps 667 mmHg 92%
    07:00 +19°C° 0 mm 2 mps 667 mmHg 91%
    08:00 +21°C° 0 mm 3 mps 668 mmHg 82%
    09:00 +23°C° 0 mm 4 mps 668 mmHg 72%
    10:00 +26°C° 0 mm 4 mps 669 mmHg 62%
    11:00 +27°C° 0 mm 4 mps 669 mmHg 59%
    12:00 +28°C° 0 mm 4 mps 668 mmHg 56%
    13:00 +29°C° 0 mm 4 mps 668 mmHg 52%
    14:00 +29°C° 0 mm 3 mps 667 mmHg 54%
    15:00 +29°C° 0 mm 3 mps 667 mmHg 56%
    16:00 +29°C° 0 mm 2 mps 666 mmHg 58%
    17:00 +26°C° 0 mm 2 mps 666 mmHg 64%
    18:00 +24°C° 0 mm 2 mps 665 mmHg 69%
    19:00 +21°C° 0 mm 2 mps 665 mmHg 75%
    20:00 +21°C° 0 mm 1 mps 665 mmHg 76%
    21:00 +21°C° 0 mm 1 mps 666 mmHg 78%
    22:00 +20°C° 0 mm 1 mps 666 mmHg 79%
    23:00 +20°C° 0 mm 1 mps 666 mmHg 80%

    Tomorrow, 30 April, Sunday

    Time Temperature Precipitation Wind Pressure Humidity
    00:00 +20°C° 0 mm 1 mps 666 mmHg 81%
    01:00 +19°C° 0 mm 1 mps 666 mmHg 82%
    02:00 +18°C° 0 mm 2 mps 666 mmHg 82%
    03:00 +18°C° 0 mm 2 mps 665 mmHg 81%
    04:00 +18°C° 0 mm 2 mps 665 mmHg 81%
    05:00 +18°C° 0 mm 2 mps 666 mmHg 81%
    06:00 +18°C° 0 mm 2 mps 666 mmHg 82%
    07:00 +18°C° 0 mm 2 mps 667 mmHg 82%
    08:00 +21°C° 0 mm 3 mps 667 mmHg 73%
    09:00 +23°C° 0 mm 4 mps 668 mmHg 63%
    10:00 +26°C° 0 mm 5 mps 669 mmHg 54%
    11:00 +27°C° 0 mm 5 mps 668 mmHg 51%
    12:00 +28°C° 0 mm 5 mps 667 mmHg 48%
    13:00 +29°C° 0 mm 4 mps 667 mmHg 46%
    14:00 +28°C° 0 mm 4 mps 666 mmHg 48%
    15:00 +28°C° 0 mm 3 mps 666 mmHg 51%
    16:00 +28°C° 0 mm 2 mps 665 mmHg 54%
    17:00 +26°C° 0 mm 2 mps 665 mmHg 59%
    18:00 +23°C° 0 mm 2 mps 665 mmHg 64%
    19:00 +20°C° 0 mm 2 mps 665 mmHg 69%
    20:00 +19°C° 0 mm 2 mps 665 mmHg 70%
    21:00 +19°C° 0 mm 2 mps 666 mmHg 71%
    22:00 +20°C° 0 mm 1 mps 666 mmHg 72%
    23:00 +18°C° 0 mm 2 mps 666 mmHg 73%

    Day after tomorrow, 1 May, Monday

    Time Temperature Precipitation Wind Pressure Humidity
    00:00 +18°C° 0 mm 2 mps 666 mmHg 74%
    01:00 +17°C° 0 mm 2 mps 666 mmHg 76%
    02:00 +17°C° 0 mm 2 mps 665 mmHg 76%
    03:00 +17°C° 0 mm 2 mps 665 mmHg 77%
    04:00 +17°C° 0 mm 2 mps 665 mmHg 77%
    05:00 +17°C° 0 mm 2 mps 665 mmHg 78%
    06:00 +17°C° 0 mm 2 mps 666 mmHg 79%
    07:00 +17°C° 0 mm 3 mps 666 mmHg 79%
    08:00 +19°C° 0 mm 3 mps 667 mmHg 71%
    09:00 +22°C° 0 mm 4 mps 667 mmHg 64%
    10:00 +25°C° 0 mm 5 mps 668 mmHg 56%
    11:00 +26°C° 0 mm 4 mps 668 mmHg 53%
    12:00 +27°C° 0 mm 4 mps 667 mmHg 50%
    13:00 +28°C° 0 mm 3 mps 666 mmHg 46%
    14:00 +28°C° 0 mm 3 mps 666 mmHg 48%
    15:00 +28°C° 0 mm 2 mps 666 mmHg 50%
    16:00 +28°C° 0 mm 2 mps 665 mmHg 51%
    17:00 +25°C° 0 mm 2 mps 665 mmHg 59%
    18:00 +22°C° 0 mm 1 mps 665 mmHg 67%
    19:00 +19°C° 0 mm 1 mps 664 mmHg 75%
    20:00 +19°C° 0 mm 1 mps 665 mmHg 76%
    21:00 +18°C° 0 mm 1 mps 665 mmHg 77%
    22:00 +18°C° 0 mm 1 mps 665 mmHg 77%
    23:00 +16°C° 0 mm 1 mps 665 mmHg 78%

    2 May, Tuesday

    Time Temperature Precipitation Wind Pressure Humidity
    00:00 +16°C° 0 mm 1 mps 664 mmHg 78%
    01:00 +16°C° 0 mm 1 mps 664 mmHg 78%
    02:00 +16°C° 0 mm 1 mps 664 mmHg 76%
    03:00 +16°C° 0 mm 2 mps 664 mmHg 73%
    04:00 +16°C° 0 mm 2 mps 664 mmHg 70%
    05:00 +16°C° 0 mm 2 mps 665 mmHg 71%
    06:00 +16°C° 0 mm 2 mps 665 mmHg 72%
    07:00 +16°C° 0 mm 3 mps 666 mmHg 73%
    08:00 +19°C° 0 mm 3 mps 666 mmHg 67%
    09:00 +21°C° 0 mm 4 mps 667 mmHg 61%
    10:00 +25°C° 0 mm 5 mps 668 mmHg 55%
    11:00 +26°C° 0 mm 4 mps 667 mmHg 53%
    12:00 +27°C° 0 mm 4 mps 666 mmHg 50%
    13:00 +28°C° 0 mm 4 mps 666 mmHg 48%
    14:00 +28°C° 0 mm 3 mps 665 mmHg 49%
    15:00 +28°C° 0 mm 3 mps 665 mmHg 51%
    16:00 +28°C° 0 mm 2 mps 665 mmHg 53%
    17:00 +25°C° 0 mm 2 mps 664 mmHg 61%
    18:00 +22°C° 0 mm 1 mps 664 mmHg 70%
    19:00 +19°C° 0 mm 1 mps 664 mmHg 79%
    20:00 +19°C° 0 mm 1 mps 664 mmHg 80%
    21:00 +18°C° 0 mm 1 mps 664 mmHg 81%
    22:00 +18°C° 0 mm 1 mps 665 mmHg 82%
    23:00 +18°C° 0 mm 1 mps 664 mmHg 82%

    3 May, Wednesday

    Time Temperature Precipitation Wind Pressure Humidity
    00:00 +16°C° 0 mm 1 mps 664 mmHg 82%
    01:00 +16°C° 0 mm 1 mps 664 mmHg 83%
    02:00 +16°C° 0 mm 1 mps 664 mmHg 81%
    03:00 +16°C° 0 mm 1 mps 664 mmHg 79%
    04:00 +17°C° 0 mm 2 mps 664 mmHg 77%
    05:00 +17°C° 0 mm 2 mps 665 mmHg 76%
    06:00 +17°C° 0 mm 2 mps 665 mmHg 76%
    07:00 +18°C° 0 mm 3 mps 666 mmHg 75%
    08:00 +20°C° 0 mm 3 mps 666 mmHg 69%
    09:00 +22°C° 0 mm 4 mps 667 mmHg 62%
    10:00 +25°C° 0 mm 4 mps 667 mmHg 56%
    11:00 +26°C° 0 mm 4 mps 667 mmHg 53%
    12:00 +27°C° 0 mm 4 mps 666 mmHg 50%
    13:00 +28°C° 0 mm 3 mps 666 mmHg 47%
    14:00 +28°C° 0 mm 3 mps 665 mmHg 49%
    15:00 +28°C° 0 mm 2 mps 665 mmHg 50%
    16:00 +28°C° 0 mm 2 mps 665 mmHg 51%
    17:00 +25°C° 0 mm 2 mps 664 mmHg 60%
    18:00 +22°C° 0 mm 1 mps 664 mmHg 68%
    19:00 +19°C° 0 mm 1 mps 664 mmHg 77%
    20:00 +19°C° 0 mm 1 mps 664 mmHg 78%
    21:00 +19°C° 0 mm 1 mps 664 mmHg 79%
    22:00 +18°C° 0 mm 1 mps 664 mmHg 80%
    23:00 +18°C° 0 mm 1 mps 664 mmHg 80%

    4 May, Thursday

    Time Temperature Precipitation Wind Pressure Humidity
    00:00 +16°C° 0 mm 1 mps 664 mmHg 81%
    01:00 +16°C° 0 mm 1 mps 664 mmHg 82%
    02:00 +16°C° 0 mm 1 mps 664 mmHg 79%
    03:00 +16°C° 0 mm 2 mps 664 mmHg 75%
    04:00 +17°C° 0 mm 2 mps 664 mmHg 72%
    05:00 +17°C° 0 mm 2 mps 665 mmHg 72%
    06:00 +17°C° 0 mm 3 mps 665 mmHg 73%
    07:00 +17°C° 0 mm 3 mps 666 mmHg 73%
    08:00 +19°C° 0 mm 3 mps 666 mmHg 66%
    09:00 +22°C° 0 mm 4 mps 667 mmHg 60%
    10:00 +26°C° 0 mm 4 mps 667 mmHg 54%
    11:00 +27°C° 0 mm 4 mps 667 mmHg 51%
    12:00 +28°C° 0 mm 4 mps 666 mmHg 48%
    13:00 +29°C° 0 mm 4 mps 666 mmHg 44%
    14:00 +29°C° 0 mm 3 mps 665 mmHg 46%
    15:00 +29°C° 0 mm 2 mps 665 mmHg 48%
    16:00 +29°C° 0 mm 2 mps 665 mmHg 49%
    17:00 +26°C° 0 mm 2 mps 664 mmHg 57%
    18:00 +22°C° 0 mm 1 mps 664 mmHg 65%
    19:00 +19°C° 0 mm 1 mps 663 mmHg 73%
    20:00 +19°C° 0 mm 1 mps 664 mmHg 73%
    21:00 +19°C° 0 mm 1 mps 664 mmHg 72%
    22:00 +19°C° 0 mm 1 mps 664 mmHg 72%
    23:00 +18°C° 0 mm 1 mps 664 mmHg 71%
    Show more